YAOGAN 24

导读 | 星芒AI

遥感24号卫星是中国研制的一颗主要用于科学探测和资源调查的卫星。该卫星于2020年12月22日由长征四号丙运载火箭成功发射,运行在太阳同步轨道上。遥感24号具备高分辨率成像能力,广泛应用于国土资源监测、环境评估、灾害预警等领域。其搭载的多种遥感设备可获取高精度的地球表面数据,为国家的科研和经济发展提供重要支持。

基本信息
目录编号:
40310
目录名称:
YAOGAN 24
国际标识:
2014-072A
轨道中心:
EARTH
卫星名称:
YAOGAN 24
卫星全名:
--
卫星状态:
在轨 (已飞行4043 天)
发射日期:
2014-11-20 UTC
国别 :
中国 (CN)
星等 :
--
轨道信息
数据来源 国际轨道数据 AOE轨道数据
星历时间 2025-12-15T07:33:00+0800
19小时前
查看轨道信息
2025-12-14T15:00:00+0800
1天前
查看轨道信息
半长轴 7019.535km 7019.545km
偏心率 0.0014841 0.0014877
轨道倾角 98.122° 98.122°
近地点辐角 131.196° 133.448°
升交点赤经 120.086° 119.393°
平近点角 229.053° 164.400°
近地点 630.982km 630.967km
远地点 651.818km 651.853km
周期 97.549分钟 97.549分钟
每日圈数 14.761832 14.761802
详细信息
使用方式:
暂无
2D轨道图
3D轨道图
轨道高度分析图
轨道倾角分析图
轨道综合分析图
查看轨道综合分析图